Hourly Weather Roundup
Issued by NWS Central Illinois

Home | Current Version | Previous Version | Text Only | Print | Product List | Glossary On
Versions: 1 2 3 4 5 6 7 8 9 10 11 12 13 14 15 16 17 18 19 20 21 22 23 24 25 26 27 28 29 30 31 32 33 34 35 36 37 38 39 40 41 42 43 44 45 46 47 48 49 50
000
NZUS43 KILX 182010
HWRILX

AREA WEATHER ROUNDUP
NATIONAL WEATHER SERVICE, LINCOLN IL
300 PM CDT SAT APR 18 2015


CITY           SKY/WX    TMP DP  RH WIND       PRES   REMARKS
BLOOMINGTON    PTSUNNY   80  50  35 SE12G18   29.96F
CHAMPAIGN      PTSUNNY   80  44  27 E17G25    29.97F
DECATUR        PTSUNNY   77  48  35 SE15      29.95F
EFFINGHAM      CLOUDY    76  48  38 E7        29.98F
FLORA          CLOUDY    76  55  46 SE10      29.95F
GALESBURG      MOSUNNY   78  51  38 SE13G18   29.93F
JACKSONVILLE   MOSUNNY   80  55  41 SE17G24   29.94S HX  80
LACON          PTSUNNY   74  54  49 NE9       29.95F
LAWRENCEVILLE  CLOUDY    78  52  40 E6        29.96F
LITCHFIELD     CLOUDY    73  56  54 SE8       29.95F
$$


CITY           SKY/WX    TMP DP  RH WIND       PRES   REMARKS
LINCOLN        MOSUNNY   82  47  29 SE12G21   29.91F HX  80
MACOMB         PTSUNNY   80  51  35 SE16G24   29.94F
MATTOON        CLOUDY    73  51  46 SE8       29.97F
MT CARMEL AP   CLOUDY    81  43  26 E8        29.95F
OLNEY-NOBLE AP CLOUDY    77  54  44 E9        29.95F
PARIS          CLOUDY    75  50  41 SE9       29.99F
PEORIA         CLOUDY    80  50  34 SE14G21   29.94F HX  80
PONTIAC        CLOUDY    80  55  41 E9G17     29.98F HX  80
RANTOUL        PTSUNNY   80  47  31 E12G20    29.97F
ROBINSON       CLOUDY    77  47  34 E7        29.97F
SPRINGFIELD    MOSUNNY   81  51  35 SE16G25   29.94F HX  80
TAYLORVILLE    PTSUNNY   75  52  43 SE13      29.95F
$$

...REGIONAL REPORTS...


CITY           SKY/WX    TMP DP  RH WIND       PRES   REMARKS
CHICAGO O`HARE PTSUNNY   56  37  49 NE15      30.06F
KANKAKEE       CLOUDY    75  52  45 NE10      30.00F
MOLINE         PTSUNNY   80  52  37 SE9       29.92F HX  80
MOUNT VERNON   CLOUDY    75  55  50 SE7       29.95F
PITTSFIELD     MOSUNNY   80  53  38 SE14G23   29.94S HX  80
QUINCY         MOSUNNY   78  54  43 SE18      29.91F
ROCKFORD       PTSUNNY   72  34  24 E16G23    30.03F
$$


CITY           SKY/WX    TMP DP  RH WIND       PRES   REMARKS
BURLINGTON     MOSUNNY   79  55  43 SE15G23   29.91F
CEDAR RAPIDS     N/A     78  54  43 SE13G23   29.91F
DES MOINES     LGT RAIN  66  56  70 S17G29    29.90R
KIRKSVILLE     CLOUDY    73  61  65 SE14      29.89F
OTTUMWA        CLOUDY    78  54  43 S16G28    29.89F
ST LOUIS       CLOUDY    76  60  57 SE12      29.94F
$$


CITY           SKY/WX    TMP DP  RH WIND       PRES   REMARKS
TERRE HAUTE    CLOUDY    74  48  39 E8        29.97F
EVANSVILLE     CLOUDY    80  53  39 NE10G16   29.94F HX  80
INDIANAPOLIS   CLOUDY    75  46  35 SE5       29.99F
LAFAYETTE      MOSUNNY   76  48  37 E7        29.99F
MADISON        PTSUNNY   68  34  28 NE18G24   30.07F
MILWAUKEE      MOSUNNY   47  35  63 N22G30    30.13F
$$





USA.gov is the U.S. government's official web portal to all federal, state and local government web resources and services.